Location: Krasnoyarskiy Pitomnik
(51.1333°N, 71.6167°E)
Time: 23:25:45
(UTC+00:00)

Vanguard 1 - Pass Details

Date: 21 April 2024
Orbit: 651 x 3826 km, 34.2° (Epoch: 18 May)

Event Time Altitude Azimuth Distance (km) Brightness Sun altitude
Exits shadow 20:44:48 14° 169° (S) 6,554 13.8 -23.5°
Maximum altitude 20:54:37 19° 141° (SE) 5,804 13.7 -22.8°
Drops below altitude 10° 21:05:55 10° 105° (ESE) 5,866 14.2 -22.0°
Sets 21:11:39 0° 89° (E) 6,372 14.7 -21.5°
